Погода в Персирланах

Россия / Чувашская Республика     55°52′28″N   46°14′54″E
темп.,
°C
ветер,
м/с
пор.,
м/с
влажн.,
%
обл.,
%
осадки,
мм/ч
давл.,
гПа
погр.,
м
17 апреля, сб
сб1700:00+7всв5128233 0.0 1025324
03:00+5всв511775 0.0 1026257
06:00+4всв512735 0.0 1026303
09:00+9всв79575 0.0 1027547
12:00+13в68485 0.0 1026985
15:00+13всв67370 0.0 10251194
18:00+11в48455 0.0 1025256
21:00+7всв512630 0.0 1025238
18 апреля, вс
вс1800:00+5всв512711 0.0 1025252
03:00+3всв411760 0.0 1025217
06:00+3всв512755 0.0 1025294
09:00+9в69550 0.0 1025898
12:00+12всв68446 0.0 10241443
15:00+13всв784124 0.0 10241749
18:00+11всв5955100 0.0 1024435
21:00+6всв71371100 0.0 1027552
19 апреля, пн
пн1900:00+5всв61267100 0.0 1027550
03:00+4всв61155100 0.0 1028480
06:00+2всв6126497 0.0 1029529
09:00+5в8115073 0.0 1030950
12:00+8в910377 0.0 10301513
15:00+8в810345 0.0 10291656
18:00+7в6104370 0.0 10301046
21:00+3в6144829 0.0 1031515
20 апреля, вт
вт2000:00+2в6145178 0.0 1031433
03:00+1в614578 0.0 1031354
06:00+1в6146252 0.0 1031435
09:00+6вюв9124731 0.0 1030922
12:00+9вюв91141100 0.0 10291332
15:00+10вюв9124179 0.0 10271364
18:00+8вюв81346100 0.0 1025981
21:00+6вюв81545100 0.0 1025766
21 апреля, ср
ср2100:00+6вюв81749100 0.0 1023696
03:00+5юв91753100 0.0 1022678
06:00+5юв91956100 0.1 1020649
09:00+4юв91872100 1.6 1021770
12:00+4юв91785100 2.3 1021739
15:00+5юв81585100 2.5 1022662
18:00+5ююв81585100 0.0 1022589
21:00+5ююв71388100 0.0 1023517